Location: Cuzcurrita-R�o Tir�n
(42.5415°N, 2.9642°W)
Time: 02:05:45
(UTC+00:00)

Helios 1A Rocket - Pass Details

Date: 17 January 2021
Orbit: 562 x 586 km, 98.3° (Epoch: 08 March)

Event Time Altitude Azimuth Distance (km) Brightness Sun altitude
Rises 18:24:24 0° 144° (SE) 2,791 6.2 -14.2°
Reaches altitude 10° 18:26:40 10° 135° (SE) 1,899 5.3 -14.6°
Maximum altitude 18:30:24 34° 69° (ENE) 967 3.5 -15.2°
Drops below altitude 10° 18:34:10 10° 5° (N) 1,919 5.4 -15.9°
Sets 18:36:28 0° 356° (N) 2,825 6.4 -16.3°
